SWA994 KBUR-KRNO

Flight info

Callsign SWA994
Flight time 1h 3m
Altitude 38000
Route OROSZ2 CSTRO SHERF DNGLE1
Aircraft B737/M-SDE2E3FGHIRWXY/LB1

Departure

Time 2026-05-05 15:21
Airport Hollywood Burbank/Bob Hope Airport (KBUR)

Arrival

Time 2026-05-05 16:24
Airport Reno Tahoe International Airport (KRNO)
Time Latitude Longitude Altitude Speed Heading
2026-05-05 14:50 34.19676 -118.35285 689 ft 0 kts 181°
2026-05-05 15:09 34.19677 -118.35285 694 ft 2 kts 181°
2026-05-05 15:09 34.19700 -118.35285 688 ft 2 kts 181°
2026-05-05 15:09 34.19717 -118.35280 688 ft 4 kts 251°
2026-05-05 15:10 34.19719 -118.35252 685 ft 2 kts 271°
2026-05-05 15:10 34.19719 -118.35249 692 ft 0 kts 271°
2026-05-05 15:13 34.19719 -118.35250 692 ft 1 kts 271°
2026-05-05 15:13 34.19719 -118.35264 685 ft 2 kts 270°
2026-05-05 15:14 34.19720 -118.35282 689 ft 3 kts 271°
2026-05-05 15:14 34.19720 -118.35330 690 ft 8 kts 271°
2026-05-05 15:14 34.19721 -118.35394 694 ft 7 kts 271°
2026-05-05 15:14 34.19735 -118.35453 690 ft 8 kts 303°
2026-05-05 15:15 34.19804 -118.35515 690 ft 18 kts 341°
2026-05-05 15:15 34.19925 -118.35550 696 ft 18 kts 347°
2026-05-05 15:15 34.20043 -118.35583 700 ft 17 kts 347°
2026-05-05 15:15 34.20157 -118.35614 703 ft 16 kts 347°
2026-05-05 15:16 34.20266 -118.35644 714 ft 16 kts 347°
2026-05-05 15:16 34.20372 -118.35673 719 ft 15 kts 347°
2026-05-05 15:16 34.20472 -118.35701 722 ft 15 kts 347°
2026-05-05 15:16 34.20568 -118.35727 728 ft 14 kts 347°
2026-05-05 15:17 34.20661 -118.35753 731 ft 13 kts 347°
2026-05-05 15:17 34.20749 -118.35777 738 ft 13 kts 347°
2026-05-05 15:17 34.20848 -118.35804 745 ft 15 kts 347°
2026-05-05 15:17 34.20949 -118.35831 753 ft 14 kts 347°
2026-05-05 15:18 34.21044 -118.35857 757 ft 14 kts 346°
2026-05-05 15:18 34.21110 -118.35878 765 ft 8 kts 345°
2026-05-05 15:18 34.21157 -118.35908 769 ft 6 kts 314°
2026-05-05 15:18 34.21159 -118.35911 770 ft 0 kts 313°
2026-05-05 15:20 34.21178 -118.35939 771 ft 12 kts 309°
2026-05-05 15:20 34.21207 -118.36026 773 ft 11 kts 232°
2026-05-05 15:20 34.21166 -118.36029 771 ft 0 kts 166°
2026-05-05 15:20 34.21092 -118.36008 768 ft 41 kts 167°
2026-05-05 15:21 34.20539 -118.35855 728 ft 119 kts 167°
2026-05-05 15:21 34.19550 -118.35582 799 ft 166 kts 167°
2026-05-05 15:21 34.18381 -118.35302 1487 ft 174 kts 173°
2026-05-05 15:21 34.17162 -118.35461 2205 ft 184 kts 204°
2026-05-05 15:22 34.16085 -118.36396 2777 ft 202 kts 230°
2026-05-05 15:22 34.15439 -118.37928 3449 ft 215 kts 258°
2026-05-05 15:22 34.15339 -118.39848 3856 ft 244 kts 270°
2026-05-05 15:22 34.15366 -118.41957 4622 ft 257 kts 271°
2026-05-05 15:23 34.15406 -118.44146 5553 ft 263 kts 271°
2026-05-05 15:23 34.15442 -118.46377 6579 ft 267 kts 272°
2026-05-05 15:23 34.15473 -118.48636 7539 ft 271 kts 271°
2026-05-05 15:23 34.15500 -118.50924 8510 ft 274 kts 271°
2026-05-05 15:24 34.15524 -118.53249 9448 ft 280 kts 271°
2026-05-05 15:24 34.15546 -118.55589 9859 ft 278 kts 271°
2026-05-05 15:24 34.15566 -118.57925 9979 ft 286 kts 271°
2026-05-05 15:24 34.15586 -118.60329 9986 ft 286 kts 271°
2026-05-05 15:25 34.15607 -118.62728 9982 ft 284 kts 271°
2026-05-05 15:25 34.15627 -118.65103 9981 ft 282 kts 271°
2026-05-05 15:25 34.15647 -118.67459 9985 ft 280 kts 271°
2026-05-05 15:25 34.15667 -118.69803 9989 ft 278 kts 271°
2026-05-05 15:26 34.15729 -118.72137 9981 ft 279 kts 281°
2026-05-05 15:26 34.16560 -118.74218 10003 ft 281 kts 314°
2026-05-05 15:26 34.18222 -118.75423 10003 ft 285 kts 346°
2026-05-05 15:26 34.20246 -118.75609 10152 ft 305 kts
2026-05-05 15:27 34.22425 -118.75163 10441 ft 330 kts 14°
2026-05-05 15:27 34.24659 -118.74321 11112 ft 339 kts 17°
2026-05-05 15:27 34.26909 -118.73398 11955 ft 344 kts 17°
2026-05-05 15:27 34.29191 -118.72477 12766 ft 349 kts 17°
2026-05-05 15:28 34.31533 -118.71564 13567 ft 356 kts 16°
2026-05-05 15:28 34.33882 -118.70675 14327 ft 361 kts 15°
2026-05-05 15:28 34.36295 -118.69778 15197 ft 363 kts 15°
2026-05-05 15:28 34.38719 -118.68881 16090 ft 366 kts 16°
2026-05-05 15:29 34.41184 -118.68068 16918 ft 369 kts
2026-05-05 15:29 34.43746 -118.67761 17737 ft 372 kts 360°
2026-05-05 15:29 34.46341 -118.68007 18529 ft 376 kts 351°
2026-05-05 15:29 34.48942 -118.68514 19257 ft 379 kts 350°
2026-05-05 15:30 34.51555 -118.69067 19961 ft 383 kts 349°
2026-05-05 15:30 34.54198 -118.69625 20665 ft 387 kts 350°
2026-05-05 15:30 34.56870 -118.70173 21366 ft 391 kts 350°
2026-05-05 15:30 34.59570 -118.70713 22058 ft 395 kts 350°
2026-05-05 15:31 34.62291 -118.71248 22758 ft 398 kts 350°
2026-05-05 15:31 34.65042 -118.71786 23418 ft 402 kts 350°
2026-05-05 15:31 34.67820 -118.72329 23983 ft 406 kts 350°
2026-05-05 15:31 34.70568 -118.72942 24555 ft 408 kts 346°
2026-05-05 15:32 34.73266 -118.74025 25164 ft 409 kts 337°
2026-05-05 15:32 34.75811 -118.75619 25722 ft 412 kts 332°
2026-05-05 15:32 34.78321 -118.77351 26214 ft 417 kts 331°
2026-05-05 15:32 34.80839 -118.79120 26730 ft 420 kts 332°
2026-05-05 15:33 34.83378 -118.80904 27211 ft 423 kts 332°
2026-05-05 15:33 34.85941 -118.82694 27681 ft 427 kts 332°
2026-05-05 15:33 34.88529 -118.84491 28165 ft 429 kts 332°
2026-05-05 15:33 34.91132 -118.86291 28659 ft 432 kts 333°
2026-05-05 15:34 34.93753 -118.88097 29144 ft 434 kts 333°
2026-05-05 15:34 34.96389 -118.89913 29600 ft 436 kts 333°
2026-05-05 15:34 34.99043 -118.91741 30038 ft 439 kts 334°
2026-05-05 15:34 35.01711 -118.93580 30391 ft 441 kts 333°
2026-05-05 15:35 35.04395 -118.95432 30698 ft 444 kts 333°
2026-05-05 15:35 35.07090 -118.97294 31050 ft 446 kts 333°
2026-05-05 15:35 35.09788 -118.99160 31482 ft 445 kts 333°
2026-05-05 15:35 35.12478 -119.01022 31921 ft 444 kts 333°
2026-05-05 15:36 35.15133 -119.02861 32308 ft 444 kts 333°
2026-05-05 15:36 35.17824 -119.04726 32678 ft 445 kts 333°
2026-05-05 15:36 35.20515 -119.06592 33073 ft 445 kts 333°
2026-05-05 15:36 35.23211 -119.08463 33478 ft 444 kts 332°
2026-05-05 15:37 35.25897 -119.10328 33859 ft 444 kts 332°
2026-05-05 15:37 35.28589 -119.12199 34167 ft 445 kts 332°
2026-05-05 15:37 35.31279 -119.14071 34461 ft 445 kts 332°
2026-05-05 15:37 35.33971 -119.15945 34758 ft 445 kts 332°
2026-05-05 15:38 35.36658 -119.17817 35033 ft 445 kts 332°
2026-05-05 15:38 35.39353 -119.19696 35304 ft 446 kts 332°
2026-05-05 15:38 35.42074 -119.21520 35575 ft 445 kts 336°
2026-05-05 15:38 35.44966 -119.22866 35840 ft 444 kts 345°
2026-05-05 15:39 35.47970 -119.23720 36106 ft 443 kts 352°
2026-05-05 15:39 35.51047 -119.24037 36355 ft 443 kts 357°
2026-05-05 15:39 35.54129 -119.24215 36591 ft 444 kts 358°
2026-05-05 15:39 35.57220 -119.24362 36842 ft 444 kts 358°
2026-05-05 15:40 35.60306 -119.24508 37098 ft 444 kts 358°
2026-05-05 15:40 35.63395 -119.24663 37345 ft 445 kts 358°
2026-05-05 15:40 35.66456 -119.24829 37582 ft 445 kts 357°
2026-05-05 15:40 35.69596 -119.25009 37823 ft 446 kts 357°
2026-05-05 15:41 35.72664 -119.25192 38031 ft 448 kts 357°
2026-05-05 15:41 35.78905 -119.25572 38062 ft 448 kts 357°
2026-05-05 15:42 35.85129 -119.25954 38043 ft 445 kts 357°
2026-05-05 15:42 35.91288 -119.26332 38048 ft 441 kts 357°
2026-05-05 15:43 35.97401 -119.26707 38055 ft 439 kts 357°
2026-05-05 15:43 36.03500 -119.27081 38057 ft 438 kts 357°
2026-05-05 15:44 36.09585 -119.27455 38048 ft 437 kts 358°
2026-05-05 15:44 36.15655 -119.27828 38058 ft 437 kts 358°
2026-05-05 15:45 36.21713 -119.28202 38049 ft 439 kts 358°
2026-05-05 15:45 36.27829 -119.28579 38052 ft 440 kts 358°
2026-05-05 15:46 36.33954 -119.28958 38061 ft 441 kts 358°
2026-05-05 15:46 36.39061 -119.29274 38053 ft 442 kts 358°
2026-05-05 15:47 36.45218 -119.29656 38053 ft 443 kts 358°
2026-05-05 15:47 36.51378 -119.30039 38049 ft 443 kts 358°
2026-05-05 15:48 36.57541 -119.30422 38052 ft 444 kts 358°
2026-05-05 15:48 36.63720 -119.30807 38026 ft 444 kts 359°
2026-05-05 15:49 36.69885 -119.31192 38027 ft 443 kts 359°
2026-05-05 15:49 36.76045 -119.31577 38022 ft 442 kts 359°
2026-05-05 15:50 36.82180 -119.31962 38021 ft 440 kts 359°
2026-05-05 15:50 36.88294 -119.32345 38013 ft 439 kts 359°
2026-05-05 15:51 36.94332 -119.32725 38015 ft 437 kts 359°
2026-05-05 15:51 37.00402 -119.33106 38022 ft 437 kts 359°
2026-05-05 15:52 37.06483 -119.33489 38006 ft 437 kts 359°
2026-05-05 15:52 37.12559 -119.33873 38006 ft 436 kts 359°
2026-05-05 15:53 37.18622 -119.34256 38006 ft 435 kts 359°
2026-05-05 15:53 37.24667 -119.34639 38006 ft 435 kts 360°
2026-05-05 15:54 37.30682 -119.35020 38004 ft 434 kts 360°
2026-05-05 15:54 37.36710 -119.35403 38007 ft 434 kts 360°
2026-05-05 15:55 37.42734 -119.35786 37999 ft 432 kts
2026-05-05 15:55 37.48740 -119.36223 37981 ft 432 kts 359°
2026-05-05 15:56 37.54718 -119.36951 37991 ft 430 kts 358°
2026-05-05 15:56 37.57701 -119.37341 37850 ft 432 kts 358°
2026-05-05 15:56 37.60720 -119.37728 37250 ft 435 kts 358°
2026-05-05 15:56 37.63710 -119.38105 36603 ft 430 kts 359°
2026-05-05 15:57 37.66645 -119.38468 35980 ft 427 kts 360°
2026-05-05 15:57 37.69604 -119.38828 35227 ft 427 kts
2026-05-05 15:57 37.72558 -119.39186 34702 ft 422 kts
2026-05-05 15:57 37.75431 -119.39537 34212 ft 413 kts
2026-05-05 15:58 37.78295 -119.39883 33642 ft 409 kts
2026-05-05 15:58 37.81121 -119.40223 33009 ft 405 kts
2026-05-05 15:58 37.83892 -119.40560 32628 ft 395 kts
2026-05-05 15:58 37.86605 -119.40889 32133 ft 390 kts
2026-05-05 15:59 37.89291 -119.41212 31600 ft 385 kts
2026-05-05 15:59 37.91951 -119.41532 31092 ft 381 kts
2026-05-05 15:59 37.94581 -119.41849 30622 ft 377 kts
2026-05-05 15:59 37.97184 -119.42164 30138 ft 374 kts
2026-05-05 16:00 37.99765 -119.42477 29609 ft 371 kts
2026-05-05 16:00 38.02312 -119.42786 29098 ft 366 kts
2026-05-05 16:00 38.04792 -119.43088 28605 ft 360 kts
2026-05-05 16:00 38.07281 -119.43391 28130 ft 357 kts
2026-05-05 16:01 38.09754 -119.43690 27641 ft 356 kts
2026-05-05 16:01 38.12219 -119.43988 27124 ft 356 kts
2026-05-05 16:01 38.14686 -119.44288 26635 ft 356 kts
2026-05-05 16:01 38.17153 -119.44588 26124 ft 355 kts 360°
2026-05-05 16:02 38.19597 -119.44895 25856 ft 348 kts 359°
2026-05-05 16:02 38.21981 -119.45214 25679 ft 341 kts 359°
2026-05-05 16:02 38.24358 -119.45534 25547 ft 348 kts 359°
2026-05-05 16:02 38.26802 -119.45860 25376 ft 356 kts 359°
2026-05-05 16:03 38.29243 -119.46188 25219 ft 356 kts 359°
2026-05-05 16:03 38.31728 -119.46524 25039 ft 353 kts 359°
2026-05-05 16:03 38.34135 -119.46851 24878 ft 351 kts 359°
2026-05-05 16:03 38.36562 -119.47179 24721 ft 349 kts 359°
2026-05-05 16:04 38.38975 -119.47504 24563 ft 348 kts 359°
2026-05-05 16:04 38.41386 -119.47829 24412 ft 348 kts 359°
2026-05-05 16:04 38.43802 -119.48154 24253 ft 349 kts 358°
2026-05-05 16:04 38.46218 -119.48479 24081 ft 349 kts 358°
2026-05-05 16:05 38.48636 -119.48805 23934 ft 350 kts 358°
2026-05-05 16:05 38.51035 -119.49128 23788 ft 351 kts 358°
2026-05-05 16:05 38.53463 -119.49456 23633 ft 352 kts 358°
2026-05-05 16:05 38.55905 -119.49787 23435 ft 353 kts 358°
2026-05-05 16:06 38.58349 -119.50118 23267 ft 353 kts 358°
2026-05-05 16:06 38.60792 -119.50449 23089 ft 352 kts 358°
2026-05-05 16:06 38.63227 -119.50779 22916 ft 351 kts 358°
2026-05-05 16:06 38.65669 -119.51109 22602 ft 354 kts 358°
2026-05-05 16:07 38.68107 -119.51440 22304 ft 351 kts 358°
2026-05-05 16:07 38.70524 -119.51769 22008 ft 348 kts 358°
2026-05-05 16:07 38.72916 -119.52095 21723 ft 345 kts 358°
2026-05-05 16:07 38.75294 -119.52419 21434 ft 342 kts 358°
2026-05-05 16:08 38.77645 -119.52739 21150 ft 338 kts 358°
2026-05-05 16:08 38.79976 -119.53056 20868 ft 335 kts 358°
2026-05-05 16:08 38.82282 -119.53370 20622 ft 332 kts 358°
2026-05-05 16:08 38.84592 -119.53683 20331 ft 335 kts 358°
2026-05-05 16:09 38.86920 -119.53999 20067 ft 338 kts 358°
2026-05-05 16:09 38.89267 -119.54319 19778 ft 339 kts 358°
2026-05-05 16:09 38.91580 -119.54635 19496 ft 338 kts 358°
2026-05-05 16:09 38.93915 -119.54955 19213 ft 337 kts 358°
2026-05-05 16:10 38.96251 -119.55274 18900 ft 338 kts 358°
2026-05-05 16:10 38.98595 -119.55597 18504 ft 340 kts 358°
2026-05-05 16:10 39.00956 -119.55924 18085 ft 340 kts 358°
2026-05-05 16:10 39.03291 -119.56249 17637 ft 334 kts 358°
2026-05-05 16:11 39.05582 -119.56569 17228 ft 329 kts 358°
2026-05-05 16:11 39.12270 -119.57499 16108 ft 318 kts 358°
2026-05-05 16:12 39.14463 -119.57803 15738 ft 316 kts 358°
2026-05-05 16:12 39.18763 -119.58402 15011 ft 308 kts 358°
2026-05-05 16:13 39.25027 -119.59275 13953 ft 295 kts 358°
2026-05-05 16:13 39.27061 -119.59559 13580 ft 292 kts 358°
2026-05-05 16:13 39.29070 -119.59839 13190 ft 288 kts 357°
2026-05-05 16:14 39.33014 -119.60390 12505 ft 285 kts 357°
2026-05-05 16:14 39.36919 -119.60936 11817 ft 280 kts 357°
2026-05-05 16:15 39.40785 -119.61477 11168 ft 278 kts 356°
2026-05-05 16:15 39.44624 -119.62015 10544 ft 275 kts 356°
2026-05-05 16:16 39.48279 -119.62516 10208 ft 254 kts 360°
2026-05-05 16:16 39.51792 -119.62439 9840 ft 253 kts
2026-05-05 16:17 39.55309 -119.62375 9418 ft 252 kts
2026-05-05 16:17 39.57043 -119.62352 9189 ft 251 kts
2026-05-05 16:18 39.60537 -119.62288 8753 ft 252 kts
2026-05-05 16:18 39.62288 -119.62245 8507 ft 252 kts
2026-05-05 16:18 39.65798 -119.62130 8055 ft 251 kts
2026-05-05 16:19 39.67539 -119.62063 7818 ft 249 kts
2026-05-05 16:19 39.69233 -119.62327 7524 ft 247 kts 336°
2026-05-05 16:19 39.71075 -119.65840 7121 ft 243 kts 280°
2026-05-05 16:20 39.70247 -119.70014 6919 ft 250 kts 232°
2026-05-05 16:20 39.67644 -119.72956 6894 ft 245 kts 219°
2026-05-05 16:21 39.65114 -119.75525 6883 ft 217 kts 219°
2026-05-05 16:22 39.60839 -119.76657 6319 ft 210 kts 181°
2026-05-05 16:22 39.58106 -119.76656 5766 ft 183 kts 181°
2026-05-05 16:23 39.55699 -119.76663 5325 ft 167 kts 181°
2026-05-05 16:23 39.54566 -119.76666 5106 ft 160 kts 181°
2026-05-05 16:23 39.52414 -119.76674 4738 ft 152 kts 181°
2026-05-05 16:24 39.51380 -119.76675 4570 ft 150 kts 181°
2026-05-05 16:24 39.50407 -119.76678 4521 ft 122 kts 180°
2026-05-05 16:24 39.49590 -119.76691 4526 ft 19 kts 192°
2026-05-05 16:25 39.49475 -119.76774 4525 ft 16 kts 209°
2026-05-05 16:25 39.49321 -119.76925 4527 ft 13 kts 235°
2026-05-05 16:25 39.49274 -119.77017 4525 ft 8 kts 238°
2026-05-05 16:26 39.49259 -119.77055 4525 ft 6 kts 249°
2026-05-05 16:26 39.49417 -119.77154 4525 ft 18 kts 360°
2026-05-05 16:27 39.49538 -119.77154 4524 ft 17 kts 359°
2026-05-05 16:27 39.49654 -119.77154 4521 ft 17 kts
2026-05-05 16:27 39.49766 -119.77153 4526 ft 16 kts
2026-05-05 16:27 39.49875 -119.77153 4525 ft 15 kts 360°
2026-05-05 16:28 39.49979 -119.77153 4523 ft 15 kts
2026-05-05 16:28 39.50078 -119.77152 4524 ft 14 kts
2026-05-05 16:28 39.50174 -119.77152 4523 ft 13 kts
2026-05-05 16:28 39.50265 -119.77152 4524 ft 13 kts
2026-05-05 16:29 39.50352 -119.77160 4525 ft 13 kts 332°
2026-05-05 16:29 39.50374 -119.77263 4523 ft 12 kts 269°
2026-05-05 16:29 39.50404 -119.77328 4524 ft 7 kts 358°
2026-05-05 16:29 39.50436 -119.77328 4526 ft 3 kts
2026-05-05 16:30 39.50439 -119.77328 4525 ft 0 kts